Regional Weather Roundup
Issued by NWS

Home | Current Version | Previous Version | Graphics & Text | Print | Product List | Glossary On
Versions: 1 2 3 4 5 6 7 8 9 10 11 12 13 14 15 16 17 18 19 20 21 22 23 24 25 26 27 28 29 30 31 32 33 34 35 36 37 38 39 40 41 42 43 44 45 46 47 48 49 50
000
ASUS43 KOAX 231410
RWRNE

WEATHER ROUNDUP FOR NEBRASKA
NATIONAL WEATHER SERVICE OMAHA NE
900 AM CDT WED AUG 23 2017

NOTES: SATELLITE DATA IS BEING USED TO AUGMENT CLOUD COVER ABOVE
       12000 FEET.
       "FAIR" INDICATES FEW OR NO CLOUDS BELOW 12,000 FEET WITH NO
       SIGNIFICANT WEATHER AND/OR OBSTRUCTIONS TO VISIBILITY.


NEZ001>004-019>022-054>056-231500-
NEBRASKA PANHANDLE

CITY           SKY/WX    TMP DP  RH WIND       PRES   REMARKS
SCOTTSBLUFF    SUNNY     61  53  75 E7        30.13R
ALLIANCE       SUNNY     60  51  72 S14       30.13S
CHADRON        SUNNY     67  54  63 S10       30.08S
GORDON         FAIR      65  50  58 SW9G16    30.11S
KIMBALL        SUNNY     60  57  90 SW3       30.17S
SIDNEY         SUNNY     62  54  74 S15       30.17R
$$

NEZ057>060-069>072-079>082-231500-
SOUTHWEST NEBRASKA

CITY           SKY/WX    TMP DP  RH WIND       PRES   REMARKS
NORTH PLATTE   SUNNY     63  52  67 S8        30.18R
IMPERIAL       MOSUNNY   63  47  55 S13G22    30.19R
LEXINGTON      SUNNY     64  53  69 S8        30.19S
MCCOOK         SUNNY     63  51  65 S13       30.19R
OGALLALA       SUNNY     64  50  60 S9        30.16F
$$

NEZ005>010-023>029-035>040-094-231500-
NORTH CENTRAL NEBRASKA

CITY           SKY/WX    TMP DP  RH WIND       PRES   REMARKS
VALENTINE      MOSUNNY   68  51  54 SW13      30.10S
AINSWORTH      SUNNY     65  54  68 SW14      30.12S
BROKEN BOW     SUNNY     64  52  64 SW10      30.16S
O`NEILL        MOSUNNY   63  57  79 S9        30.15S
ORD            SUNNY     61  53  75 S8        30.15S
THEDFORD       SUNNY     66  50  54 S18       30.15S
$$

NEZ041-046>049-061>064-073>077-083>087-231500-
SOUTH CENTRAL NEBRASKA

CITY           SKY/WX    TMP DP  RH WIND       PRES   REMARKS
GRAND ISLAND   SUNNY     64  54  69 S12       30.18S
AURORA         MOSUNNY   63  54  71 S8        30.18S
HASTINGS       SUNNY     62  53  72 S7        30.19S
HEBRON         SUNNY     64  55  73 S5        30.18F
HOLDREGE       SUNNY     61  52  71 S9        30.19S
KEARNEY        SUNNY     61  54  77 S12       30.19S
YORK           MOSUNNY   63  55  77 S7        30.18S
$$

NEZ011>018-030>034-042>045-231500-
NORTHEAST NEBRASKA

CITY           SKY/WX    TMP DP  RH WIND       PRES   REMARKS
NORFOLK        MOSUNNY   63  55  75 S8        30.15F
ALBION         SUNNY     62  56  81 S5        30.17F
BLAIR          SUNNY     64  55  73 W5        30.17S
COLUMBUS       SUNNY     64  54  69 S8        30.18S
FREMONT        SUNNY     64  57  78 NW3       30.18S
TEKAMAH        SUNNY     61  57  87 CALM      30.17S
WAYNE          SUNNY     61  58  90 CALM      30.16F
$$

NEZ050>053-065>068-078-088>093-231500-
SOUTHEAST NEBRASKA

CITY           SKY/WX    TMP DP  RH WIND       PRES   REMARKS
LINCOLN        SUNNY     64  55  72 CALM      30.18S
OMAHA EPPLEY   SUNNY     65  57  75 NE3       30.17S
BEATRICE       SUNNY     62  56  80 CALM      30.18S
FALLS CITY     SUNNY     61  57  87 CALM      30.17R
PLATTSMOUTH    SUNNY     61  55  80 W5        30.18R
$$

NEZ044-045-051>053-067-231500-
OMAHA AREA

CITY           SKY/WX    TMP DP  RH WIND       PRES   REMARKS
OMAHA EPPLEY   SUNNY     65  57  75 NE3       30.17S
BLAIR          SUNNY     64  55  73 W5        30.17S
FREMONT        SUNNY     64  57  78 NW3       30.18S
MILLARD        SUNNY     66  57  72 CALM      30.17F
OFFUTT AFB     SUNNY     62  55  77 W3        30.17S
PLATTSMOUTH    SUNNY     61  55  80 W5        30.18R
WAHOO          FAIR      62  58  88 CALM      30.17S
$$




USA.gov is the U.S. government's official web portal to all federal, state and local government web resources and services.